Lid_Strength_Index
3 3 3 3 3 3 2 3 2 3 3 2 2 2 2 2 2 4 7 4 3 1 0 6 6 8 9 8 6 6 12 14 11 11 9 7 8 7 6 7 7 5 6 4 3
3 3 3 3 3 2 2 3 3 3 2 2 2 2 2 2 4 6 3 2 1 1 4 7 8 7 9 9 8 9 12 11 8 8 9 7 8 8 8 8 7 7 4 3 3
3 4 3 3 3 2 2 3 3 2 2 2 2 2 2 2 7 7 3 2 1 2 4 5 7 7 8 9 9 9 12 8 8 8 7 7 7 7 9 9 8 8 6 4 4
3 4 4 4 4 3 3 3 2 2 2 2 2 1 1 4 13 6 2 2 1 4 6 7 8 10 10 11 9 11 9 8 7 7 7 8 6 8 9 9 5 5 4 4 4
3 4 4 4 4 4 4 3 2 2 2 2 2 1 4 9 9 5 1 2 3 5 7 8 9 10 11 10 9 11 10 9 8 7 7 6 8 8 7 7 5 5 4 5 4
4 4 4 4 4 4 3 3 3 2 2 2 2 2 7 12 5 4 4 4 4 5 7 7 9 8 11 11 12 10 11 11 9 9 8 8 8 8 7 6 6 5 5 5 4
4 4 4 4 4 3 3 3 3 2 2 2 2 4 8 10 5 4 4 5 4 4 6 6 7 9 9 12 10 11 13 12 12 10 9 7 10 10 6 6 6 6 6 5 5
4 4 4 4 4 4 3 3 2 2 2 2 2 5 11 4 5 4 4 4 3 4 4 5 6 7 9 9 11 13 14 17 12 12 11 9 14 10 8 8 7 6 7 6 5
4 4 4 4 4 4 3 3 3 2 2 2 5 7 10 3 6 4 4 5 4 4 4 4 6 9 9 12 15 15 18 16 14 11 12 12 13 10 8 9 10 9 7 6 5
4 4 4 4 4 3 3 2 3 3 3 3 5 9 7 8 6 5 4 4 6 6 6 7 9 12 12 14 19 16 16 14 15 13 12 15 16 12 11 11 12 12 10 7 6
4 4 4 4 4 3 4 7 10 11 8 10 10 9 8 6 5 5 4 5 6 7 11 9 13 14 12 11 12 13 14 15 13 11 12 14 15 13 11 12 12 12 11 10 9
4 4 4 4 4 3 7 10 10 9 13 8 8 8 7 6 8 6 3 8 8 12 9 12 13 10 10 11 12 13 15 15 13 11 12 13 14 12 11 10 10 11 11 10 8
5 5 4 5 5 6 8 8 5 6 12 10 8 8 8 6 9 8 5 7 10 11 11 12 11 9 10 11 12 13 13 13 14 12 12 14 16 14 11 10 9 8 9 9 8
5 5 4 5 8 9 9 6 5 6 18 15 10 8 7 7 10 5 5 8 10 11 11 12 8 9 10 11 10 13 11 11 12 14 18 13 21 15 12 11 10 9 9 9 9
5 5 5 5 9 9 8 6 5 8 25 14 12 6 7 10 9 7 5 8 11 10 11 13 11 11 11 11 9 12 10 11 12 13 14 16 20 16 12 13 12 11 10 9 9
5 5 5 7 8 8 6 7 8 18 26 18 12 12 12 10 9 7 7 7 7 10 10 11 8 9 10 10 10 9 11 12 12 13 23 16 18 17 15 13 11 10 9 8 7
5 6 6 7 10 7 7 10 20 23 17 19 17 13 13 13 11 10 10 11 13 16 18 13 11 10 9 13 10 11 14 25 23 21 25 15 18 17 12 11 11 11 10 9 8
5 6 6 7 6 7 10 18 25 25 22 14 13 13 15 13 13 12 12 14 10 12 14 16 20 11 10 12 13 13 14 19 24 23 21 16 19 16 11 11 10 10 10 9 9
6 9 9 8 6 8 15 24 24 21 15 15 14 19 18 13 14 13 11 13 11 11 18 16 20 11 10 10 11 15 19 13 20 21 22 18 16 13 12 12 11 11 11 10 10
11 11 10 8 8 10 20 21 22 14 13 13 21 17 22 16 17 15 14 12 11 9 10 14 18 15 12 11 11 12 11 17 19 26 26 21 19 18 15 13 13 13 12 11 9
11 14 10 9 9 16 23 24 17 12 11 16 21 18 16 18 17 16 14 11 10 11 10 12 13 18 14 15 15 13 15 14 15 17 22 26 21 13 14 13 14 13 12 12 11
12 19 10 10 18 17 24 18 12 13 12 12 14 14 16 15 17 16 15 13 11 12 14 10 13 18 20 12 11 12 13 13 19 20 19 19 21 12 13 13 13 13 12 13 12
15 15 10 10 22 23 18 15 14 13 13 13 13 13 13 15 20 15 13 11 11 11 12 11 14 21 20 16 14 17 14 14 14 15 18 20 20 13 13 14 13 13 13 13 13
15 17 14 14 14 18 20 19 17 13 12 12 13 12 13 17 14 16 14 12 11 10 8 10 14 16 19 17 15 19 15 15 16 21 19 18 18 15 15 15 14 14 13 13 13
14 18 15 17 17 16 17 17 16 18 13 12 14 13 14 21 21 19 14 13 11 9 11 12 15 17 15 14 14 15 15 16 18 16 19 18 18 15 14 15 14 14 13 14 14
15 16 16 16 16 16 16 18 17 15 15 15 15 14 14 16 17 19 16 14 15 13 14 12 18 14 19 14 14 16 14 18 20 15 16 16 17 13 12 13 14 14 14 14 14
12 13 14 16 16 16 18 17 16 15 14 12 13 14 15 14 13 13 13 13 13 14 15 15 15 17 21 16 17 18 17 16 15 14 15 20 15 13 14 13 14 14 13 14 14